Weather History for Washington, PA

Change the Weather History Date:

Sunday, October 13, 2013

  Actual Average Record
Temperature  
Mean Temperature 62 °F -  
Max Temperature 69 °F 61 °F 82 °F (2001)
Min Temperature 55 °F 39 °F 24 °F (2012)
Degree Days  
Heating Degree Days 3    
Growing Degree Days 12 (Base 50)    
Moisture  
Dew Point 56 °F    
Average Humidity 81    
Maximum Humidity 100    
Minimum Humidity 64    
Precipitation  
Precipitation 0.00 in - - ()
Sea Level Pressure  
Sea Level Pressure 30.25 in    
Wind  
Wind Speed 3 mph (East)    
Max Wind Speed 8 mph    
Max Gust Speed -    
Visibility 10 miles    
Events      
Averages and records for this station are not official NWS values.
T = Trace of Precipitation, MM = Missing Value Source: NWS Daily Summary

Daily Weather History Graph

Daily Weather History Graph

Search for Another Location

Airport:

Trip Planner

Search our weather history database for the weather conditions in past years. The results will help you decide how hot, cold, wet, or windy it might be!

Date:

Astronomy

Oct. 13, 2013 Rise Set
Actual Time 7:29 AM EDT 6:44 PM EDT
Civil Twilight 7:02 AM EDT 7:11 PM EDT
Nautical Twilight 6:31 AM EDT 7:42 PM EDT
Astronomical Twilight 5:59 AM EDT 8:14 PM EDT
Moon 3:34 PM EDT (10/13) 1:37 AM EDT (10/13)
Length of Visible Light 12h 08m
Length of Day
11h 14m
Waxing Gibbous, 69% of the Moon is Illuminated
Oct 13
Waxing Gibbous
Oct 18
Full
Oct 26
Last Quarter
Nov 3
New
Nov 10
First Quarter

Hourly Weather History & Observations

Time (EDT) Temp. Dew Point Humidity Pressure Visibility Wind Dir Wind Speed Gust Speed Precip Events Conditions
12:15 AM 60.8 °F 55.4 °F 82% 30.17 in 10.0 mi East 8.1 mph - N/A   Clear
12:35 AM 60.8 °F 55.4 °F 82% 30.18 in 10.0 mi Calm Calm - N/A   Clear
12:55 AM 59.0 °F 55.4 °F 88% 30.18 in 10.0 mi Calm Calm - N/A   Clear
1:15 AM 57.2 °F 55.4 °F 94% 30.19 in 10.0 mi Calm Calm - N/A   Clear
1:35 AM 55.4 °F 53.6 °F 94% 30.19 in 10.0 mi Calm Calm - N/A   Clear
1:55 AM 55.4 °F 55.4 °F 100% 30.19 in 10.0 mi Calm Calm - N/A   Scattered Clouds
2:15 AM 55.4 °F 53.6 °F 94% 30.20 in 10.0 mi Calm Calm - N/A   Mostly Cloudy
2:35 AM 55.4 °F 53.6 °F 94% 30.20 in 10.0 mi Calm Calm - N/A   Overcast
2:55 AM 55.4 °F 53.6 °F 94% 30.20 in 10.0 mi Calm Calm - N/A   Overcast
3:15 AM 55.4 °F 53.6 °F 94% 30.20 in 10.0 mi Calm Calm - N/A   Overcast
3:35 AM 57.2 °F 55.4 °F 94% 30.20 in 10.0 mi Calm Calm - N/A   Overcast
3:55 AM 57.2 °F 55.4 °F 94% 30.20 in 10.0 mi Calm Calm - N/A   Overcast
4:15 AM 57.2 °F 55.4 °F 94% 30.21 in 10.0 mi Calm Calm - N/A   Overcast
4:35 AM 59.0 °F 55.4 °F 88% 30.21 in 10.0 mi East 3.5 mph - N/A   Overcast
4:55 AM 59.0 °F 55.4 °F 88% 30.21 in 10.0 mi East 4.6 mph - N/A   Overcast
5:15 AM 59.0 °F 55.4 °F 88% 30.22 in 10.0 mi East 3.5 mph - N/A   Overcast
5:35 AM 59.0 °F 55.4 °F 88% 30.22 in 10.0 mi Calm Calm - N/A   Overcast
5:55 AM 57.2 °F 53.6 °F 88% 30.22 in 10.0 mi Calm Calm - N/A   Overcast
6:15 AM 57.2 °F 53.6 °F 88% 30.23 in 10.0 mi Calm Calm - N/A   Scattered Clouds
6:35 AM 55.4 °F 53.6 °F 94% 30.23 in 10.0 mi Calm Calm - N/A   Scattered Clouds
6:55 AM 55.4 °F 53.6 °F 94% 30.24 in 10.0 mi Calm Calm - N/A   Overcast
7:15 AM 55.4 °F 53.6 °F 94% 30.24 in 8.0 mi Calm Calm - N/A   Overcast
7:35 AM 55.4 °F 53.6 °F 94% 30.25 in 10.0 mi Calm Calm - N/A   Overcast
7:55 AM 55.4 °F 53.6 °F 94% 30.25 in 10.0 mi Calm Calm - N/A   Overcast
8:15 AM 55.4 °F 55.4 °F 100% 30.26 in 10.0 mi Calm Calm - N/A   Overcast
8:35 AM 57.2 °F 55.4 °F 94% 30.26 in 10.0 mi Calm Calm - N/A   Overcast
8:55 AM 57.2 °F 55.4 °F 94% 30.27 in 10.0 mi Calm Calm - N/A   Overcast
9:15 AM 59.0 °F 55.4 °F 88% 30.27 in 9.0 mi ENE 3.5 mph - N/A   Overcast
9:35 AM 59.0 °F 55.4 °F 88% 30.27 in 10.0 mi East 4.6 mph - N/A   Overcast
9:55 AM 60.8 °F 57.2 °F 88% 30.28 in 10.0 mi ENE 3.5 mph - N/A   Overcast
10:15 AM 60.8 °F 57.2 °F 88% 30.28 in 10.0 mi ENE 3.5 mph - N/A   Overcast
10:35 AM 62.6 °F 57.2 °F 82% 30.28 in 10.0 mi Calm Calm - N/A   Mostly Cloudy
10:55 AM 62.6 °F 57.2 °F 82% 30.28 in 10.0 mi East 5.8 mph - N/A   Partly Cloudy
11:15 AM 64.4 °F 57.2 °F 77% 30.28 in 10.0 mi East 5.8 mph - N/A   Clear
11:35 AM 66.2 °F 57.2 °F 73% 30.28 in 10.0 mi East 6.9 mph - N/A   Partly Cloudy
11:55 AM 66.2 °F 57.2 °F 73% 30.28 in 10.0 mi SE 5.8 mph - N/A   Scattered Clouds
12:15 PM 68.0 °F 57.2 °F 68% 30.27 in 10.0 mi ESE 6.9 mph - N/A   Partly Cloudy
12:35 PM 68.0 °F 57.2 °F 68% 30.27 in 10.0 mi ENE 8.1 mph - N/A   Clear
12:55 PM 69.8 °F 57.2 °F 64% 30.27 in 10.0 mi ENE 6.9 mph - N/A   Clear
1:15 PM 69.8 °F 57.2 °F 64% 30.26 in 10.0 mi East 6.9 mph - N/A   Mostly Cloudy
1:35 PM 69.8 °F 59.0 °F 68% 30.26 in 10.0 mi East 5.8 mph - N/A   Overcast
1:55 PM 68.0 °F 57.2 °F 68% 30.25 in 10.0 mi East 4.6 mph - N/A   Overcast
2:15 PM 68.0 °F 57.2 °F 68% 30.25 in 10.0 mi SE 4.6 mph - N/A   Overcast
2:35 PM 69.8 °F 57.2 °F 64% 30.25 in 10.0 mi East 4.6 mph - N/A   Overcast
2:55 PM 69.8 °F 57.2 °F 64% 30.25 in 10.0 mi East 5.8 mph - N/A   Overcast
3:15 PM 68.0 °F 59.0 °F 73% 30.24 in 10.0 mi ENE 5.8 mph - N/A   Overcast
3:35 PM 69.8 °F 59.0 °F 68% 30.24 in 10.0 mi East 5.8 mph - N/A   Overcast
3:55 PM 69.8 °F 59.0 °F 68% 30.24 in 10.0 mi ENE 8.1 mph - N/A   Overcast
4:15 PM 69.8 °F 57.2 °F 64% 30.25 in 10.0 mi East 5.8 mph - N/A   Overcast
4:35 PM 69.8 °F 59.0 °F 68% 30.24 in 10.0 mi Calm Calm - N/A   Mostly Cloudy
4:55 PM 69.8 °F 57.2 °F 64% 30.25 in 10.0 mi Calm Calm - N/A   Overcast
5:15 PM 69.8 °F 57.2 °F 64% 30.25 in 10.0 mi ENE 3.5 mph - N/A   Overcast
5:35 PM 69.8 °F 59.0 °F 68% 30.25 in 10.0 mi NE 3.5 mph - N/A   Overcast
5:55 PM 68.0 °F 57.2 °F 68% 30.25 in 10.0 mi ENE 5.8 mph - N/A   Overcast
6:15 PM 68.0 °F 57.2 °F 68% 30.24 in 10.0 mi East 5.8 mph - N/A   Overcast
6:35 PM 66.2 °F 57.2 °F 73% 30.25 in 10.0 mi ENE 4.6 mph - N/A   Mostly Cloudy
6:55 PM 66.2 °F 57.2 °F 73% 30.25 in 10.0 mi Calm Calm - N/A   Mostly Cloudy
7:15 PM 64.4 °F 57.2 °F 77% 30.26 in 10.0 mi Calm Calm - N/A   Overcast
7:35 PM 64.4 °F 59.0 °F 83% 30.26 in 10.0 mi NE 5.8 mph - N/A   Overcast
7:55 PM 64.4 °F 57.2 °F 77% 30.26 in 10.0 mi ENE 3.5 mph - N/A   Overcast
8:15 PM 64.4 °F 57.2 °F 77% 30.26 in 10.0 mi Calm Calm - N/A   Overcast
8:35 PM 64.4 °F 57.2 °F 77% 30.26 in 10.0 mi ENE 6.9 mph - N/A   Overcast
8:55 PM 64.4 °F 57.2 °F 77% 30.26 in 10.0 mi NE 4.6 mph - N/A   Overcast
9:15 PM 64.4 °F 57.2 °F 77% 30.26 in 10.0 mi ENE 4.6 mph - N/A   Overcast
9:35 PM 64.4 °F 57.2 °F 77% 30.27 in 10.0 mi East 4.6 mph - N/A   Overcast
9:55 PM 62.6 °F 57.2 °F 82% 30.28 in 10.0 mi ENE 4.6 mph - N/A   Overcast
10:15 PM 62.6 °F 57.2 °F 82% 30.28 in 10.0 mi Calm Calm - N/A   Overcast
10:35 PM 62.6 °F 57.2 °F 82% 30.28 in 10.0 mi Calm Calm - N/A   Overcast
10:55 PM 62.6 °F 57.2 °F 82% 30.28 in 10.0 mi East 4.6 mph - N/A   Overcast
11:15 PM 62.6 °F 57.2 °F 82% 30.27 in 10.0 mi East 3.5 mph - N/A   Overcast
11:35 PM 62.6 °F 57.2 °F 82% 30.28 in 10.0 mi Calm Calm - N/A   Overcast
11:55 PM 60.8 °F 57.2 °F 88% 30.28 in 10.0 mi Calm Calm - N/A   Overcast